Regional Weather Roundup
Issued by NWS Charleston, WV

Home | Current Version | Previous Version | Text Only | Print | Product List | Glossary Off
Versions: 1 2 3 4 5 6 7 8 9 10 11 12 13 14 15 16 17 18 19 20 21 22 23 24 25 26 27

000
ASUS41 KRLX 170110
RWRRLX
West Virginia Regional Weather Roundup
National Weather Service Charleston WV
900 PM EDT WED AUG 16 2017

Note: "fair" indicates few or no clouds below 12,000 feet with no
significant weather and/or obstructions to visibility.

WVZ003-170200-
Northern Panhandle of West Virginia

CITY           SKY/WX    TMP DP  RH WIND       PRES   REMARKS
WHEELING       CLOUDY    77  61  57 E6        30.04R
$$

WVZ009-170200-
Northwest West Virginia

CITY           SKY/WX    TMP DP  RH WIND       PRES   REMARKS
PARKERSBURG    CLEAR     76  71  85 CALM      30.04R
$$

WVZ006-170200-
Western West Virginia

CITY           SKY/WX    TMP DP  RH WIND       PRES   REMARKS
HUNTINGTON     PTCLDY    79  69  71 SW5       30.01R
$$

WVZ015-170200-
West Central West Virginia

CITY           SKY/WX    TMP DP  RH WIND       PRES   REMARKS
CHARLESTON     CLEAR     76  72  87 CALM      30.02R
$$

WVZ022-031-170200-
North Central West Virginia

CITY           SKY/WX    TMP DP  RH WIND       PRES   REMARKS
CLARKSBURG     MOCLDY    75  69  81 CALM      30.05R
MORGANTOWN     CLEAR     75  67  76 SE3       30.06R
$$

WVZ025-035-042-045-170200-
Southern West Virginia

CITY           SKY/WX    TMP DP  RH WIND       PRES   REMARKS
BECKLEY        CLOUDY    74  67  78 S6        30.13R
LOGAN          MOCLDY    73  68  83 CALM      30.06S
BLUEFIELD      PTCLDY    71  66  84 W3        30.15R
LEWISBURG      CLEAR     71  66  84 CALM      30.12R
$$

WVZ047-170200-
Northern Mountains of West Virginia

CITY           SKY/WX    TMP DP  RH WIND       PRES   REMARKS
ELKINS         CLEAR     70  66  87 CALM      30.10R
$$

WVZ052-170200-
Eastern Panhandle of West Virginia

CITY           SKY/WX    TMP DP  RH WIND       PRES   REMARKS
MARTINSBURG    NOT AVBL
PETERSBURG     PTCLDY    76  73  91 CALM      30.05R
$$




USA.gov is the U.S. government's official web portal to all federal, state and local government web resources and services.